Starlink 31377

operational
NORAD ID: 58938 Int'l Des: 2024-027 Owner: SPXS Country: US Constellation: starlink
LEOCIRCULAR

Über Starlink 31377

Beschreibung wird geladen...

Live-Position

3D-Globus wird geladen...

Nächste Überflüge

Höhenverlauf

Altitude vs Time

uPlot chart will show altitude changes over time

Zweizeiliger Elementsatz

1 58938U 24027H 25260.66581737 .00000823 00000-0 39928-4 0 9994
2 58938 53.1602 33.5789 0001120 31.4661 328.6406 15.30192685 90831
Epoch: 17. Sept. 2025 • Age: 24 hours

Aktueller Status

Höhe 479.0 km
Geschwindigkeit 7.63 km/s
Subsatellitenpunkt 40.87°N, 69.62°W
Startdatum 10. Feb. 2024
Alter 1.6 years
Typ internet

Technische Details

Klassifizierung Payload
Masse 730.00 kg
Trockenmasse 700.00 kg
Gesamtmasse 730.00 kg
Länge 0.30 m
Durchmesser 4.10 m
Spannweite 29.00 m
Form Box + pan
Hersteller SPXS
Bus-Typ Starlink V2M
Phasenstatus In Orbit
Besitzer/Staat SPXS/US

Große Konstellationen

Loading constellations...